"Pseudo-MPEC" for P129YQ1

Created 2025 May 13 22:31:03 UT using Find_Orb

Click here for an explanation of pseudo-MPECs

 
 Astrometry: 
     P129YQ1* C2025 05 09.58657417 07 35.803-06 03 41.21   ~59J2 21.59wXNEOCPF51
     P129YQ1  C2025 05 09.59199317 07 35.977-06 03 46.56   ~59J2 21.65wXNEOCPF51
     P129YQ1  C2025 05 09.59741717 07 36.156-06 03 51.90   ~59J2 21.35wXNEOCPF51
     P129YQ1  C2025 05 09.60259517 07 36.309-06 03 57.12   ~59J2 21.62wXNEOCPF51
     P129YQ1  C2025 05 11.30272917 08 41.643-06 33 37.50   ~5B8H 20.9 GWNEOCPH01
     P129YQ1  C2025 05 11.30990917 08 41.848-06 33 45.09   ~5B8H 21.7 GWNEOCPH01
     P129YQ1  C2025 05 11.31841117 08 42.107-06 33 54.57   ~5B8H 21.3 GWNEOCPH01
     P129YQ1  C2025 05 11.33555617 08 42.611-06 34 13.26   ~5B8H 21.2 GWNEOCPH01
     P129YQ1 DC2025 05 11.34720 17 08 43.05 -06 34 25.5    ~5B9V 21.7 GVNEOCP695
     P129YQ1 DC2025 05 11.36119 17 08 43.45 -06 34 40.5    ~5B9V 21.0 GVNEOCP695

Station data:
(695) Kitt Peak  (N31.958395 W111.594670)  US/Arizona. Measurer S. Deen.
   2.3-m f/9 reflector + CCD.
(F51) Pan-STARRS 1, Haleakala  (N20.707234 W156.255910)  US/Hawaii.
   Observers J. Bulger, T. Lowe, A. Schultz, M. Willman. Measurers K.
   Chambers, S. Chastel, T. de Boer, L. Denneau, J. Fairlamb, H. Flewelling,
   M. Huber, C.-C. Lin, E. Magnier, Y. Ramanjooloo, R. Wainscoat, R. Weryk.
   1.8-m Ritchey-Chrétien + CCD.
(H01) Magdalena Ridge Observatory, Socorro  (N33.984833 W107.189333)  US/New
   Mexico.  Observers W. H. Ryan, E. V. Ryan. Measurer W. H. Ryan. 2.4-m
   f/8.9 reflector + CCD.

Orbital elements:  P129YQ1
   Perihelion 2025 Jul 25.18800 +/- 35.9 TT =  4:30:43 (JD 2460881.68800)
Epoch 2025 May 11.0 TT = JDT 2460806.5   Earth MOID: 0.1733      AutoNEOCP
M 336.33269179 +/- 13               (J2000 ecliptic)
n   0.31477507 +/- 0.129            Peri.  226.59508 +/- 38
a   2.14027293 +/- 0.584            Node    75.85748 +/- 6
e   0.4764554 +/- 0.125             Incl.   15.12334 +/- 3.3
P   3.13115                H 21.65  G  0.15   U 11.4  SR
q 1.12052830 +/- 0.162    Q 3.16001757 +/- 1.65
From 10 observations 2025 May 9-11 (42.6 hr); mean residual 0".16
Residuals in arcseconds: 
250509 F51  .07-  .04+    250511 H01  .12+  .41-    250511 695  .00   .06+    
250509 F51  .01-  .03+    250511 H01  .03-  .07-    250511 695  .13-  .51+    
250509 F51  .12+  .03+    250511 H01  .05+  .17-    
250509 F51  .04-  .09-    250511 H01  .00   .07+    

Ephemerides (geocentric):
Date (UTC) HH   RA             Dec           delta  r     elong  mag " sig PA
---- --------  ------------   ------------  ------ ------ -----  --- --------
2025 05 13 23  17 10 14.890   -07 25 59.23  .38785 1.3642 151.6 21.3  122  25
2025 05 14 00  17 10 16.300   -07 26 52.74  .38750 1.3640 151.6 21.3  125  25
2025 05 14 01  17 10 17.708   -07 27 46.38  .38715 1.3638 151.7 21.3  129  25
2025 05 14 02  17 10 19.113   -07 28 40.15  .38680 1.3635 151.7 21.3  132  25
2025 05 14 03  17 10 20.517   -07 29 34.05  .38644 1.3633 151.7 21.3  135  25
2025 05 14 04  17 10 21.919   -07 30 28.08  .38609 1.3630 151.8 21.3  139  25
2025 05 14 05  17 10 23.319   -07 31 22.24  .38574 1.3628 151.8 21.3  142  25
2025 05 14 06  17 10 24.718   -07 32 16.53  .38539 1.3626 151.8 21.3  146  25
2025 05 14 07  17 10 26.114   -07 33 10.95  .38504 1.3623 151.9 21.3  149  25
2025 05 14 08  17 10 27.508   -07 34 05.50  .38469 1.3621 151.9 21.3  153  25
2025 05 14 09  17 10 28.901   -07 35 00.18  .38434 1.3619 151.9 21.3  157  25
2025 05 14 10  17 10 30.291   -07 35 55.00  .38400 1.3616 152.0 21.3  160  25
2025 05 14 11  17 10 31.680   -07 36 49.94  .38365 1.3614 152.0 21.2  164  25
2025 05 14 12  17 10 33.067   -07 37 45.02  .38330 1.3611 152.1 21.2  168  25
2025 05 14 13  17 10 34.452   -07 38 40.23  .38295 1.3609 152.1 21.2  172  24
2025 05 14 14  17 10 35.835   -07 39 35.57  .38260 1.3607 152.1 21.2  176  24
2025 05 14 15  17 10 37.216   -07 40 31.05  .38225 1.3604 152.2 21.2  180  24
2025 05 14 16  17 10 38.595   -07 41 26.66  .38190 1.3602 152.2 21.2  184  24
2025 05 14 17  17 10 39.972   -07 42 22.40  .38156 1.3600 152.2 21.2  188  24
2025 05 14 18  17 10 41.348   -07 43 18.28  .38121 1.3597 152.3 21.2  192  24
2025 05 14 19  17 10 42.721   -07 44 14.28  .38086 1.3595 152.3 21.2  196  24
2025 05 14 20  17 10 44.092   -07 45 10.43  .38052 1.3593 152.3 21.2  200  24
2025 05 14 21  17 10 45.462   -07 46 06.71  .38017 1.3590 152.4 21.2  204  24
2025 05 14 22  17 10 46.830   -07 47 03.12  .37982 1.3588 152.4 21.2  209  24
2025 05 14 23  17 10 48.196   -07 47 59.67  .37948 1.3585 152.4 21.2  213  24
2025 05 15 00  17 10 49.560   -07 48 56.35  .37913 1.3583 152.5 21.2  217  24
2025 05 15 01  17 10 50.922   -07 49 53.17  .37878 1.3581 152.5 21.2  222  24
2025 05 15 02  17 10 52.282   -07 50 50.12  .37844 1.3578 152.5 21.2  226  24
2025 05 15 03  17 10 53.640   -07 51 47.21  .37809 1.3576 152.6 21.2  231  24
2025 05 15 04  17 10 54.996   -07 52 44.44  .37775 1.3574 152.6 21.2  235  24
2025 05 15 05  17 10 56.351   -07 53 41.80  .37740 1.3571 152.6 21.2  240  24
2025 05 15 06  17 10 57.703   -07 54 39.30  .37706 1.3569 152.7 21.2  245  24
2025 05 15 07  17 10 59.054   -07 55 36.94  .37671 1.3567 152.7 21.2  249  24
2025 05 15 08  17 11 00.402   -07 56 34.72  .37637 1.3564 152.8 21.2  254  24
2025 05 15 09  17 11 01.749   -07 57 32.63  .37602 1.3562 152.8 21.2  259  24
2025 05 15 10  17 11 03.094   -07 58 30.68  .37568 1.3560 152.8 21.2  264  23
2025 05 15 11  17 11 04.437   -07 59 28.87  .37533 1.3557 152.9 21.2  269  23
2025 05 15 12  17 11 05.778   -08 00 27.20  .37499 1.3555 152.9 21.2  274  23
2025 05 15 13  17 11 07.118   -08 01 25.66  .37465 1.3552 152.9 21.2  279  23
2025 05 15 14  17 11 08.455   -08 02 24.27  .37430 1.3550 153.0 21.2  284  23
2025 05 15 15  17 11 09.790   -08 03 23.02  .37396 1.3548 153.0 21.2  289  23
2025 05 15 16  17 11 11.124   -08 04 21.90  .37362 1.3545 153.0 21.2  294  23
2025 05 15 17  17 11 12.455   -08 05 20.93  .37328 1.3543 153.1 21.2  299  23
2025 05 15 18  17 11 13.785   -08 06 20.09  .37293 1.3541 153.1 21.2  305  23
2025 05 15 19  17 11 15.113   -08 07 19.40  .37259 1.3538 153.1 21.2  310  23
2025 05 15 20  17 11 16.439   -08 08 18.85  .37225 1.3536 153.2 21.1  315  23
2025 05 15 21  17 11 17.763   -08 09 18.43  .37191 1.3534 153.2 21.1  321  23
2025 05 15 22  17 11 19.085   -08 10 18.16  .37157 1.3531 153.2 21.1  326  23